Kansas City, MO

2:55 AM CST on December 04, 2016 (GMT -0600)
Kansas City International

Weather History for KMCI - June, 2013

Change the Weather History Date:

Monday, June 3, 2013

  Actual Average Record
Temperature  
Mean Temperature 60 °F 70 °F  
Max Temperature 73 °F 80 °F 97 °F (1972)
Min Temperature 46 °F 60 °F 46 °F (2013)
Degree Days  
Heating Degree Days 5 1  
Month to date heating degree days 14 3  
Since 1 June heating degree days 14 3  
Since 1 July heating degree days 5201 5127  
Cooling Degree Days 0 6  
Month to date cooling degree days 0 17  
Year to date cooling degree days 102 133  
Since 1 June cooling degree days 0 17  
Growing Degree Days 10 (Base 50)    
Moisture  
Dew Point 49 °F    
Average Humidity 68    
Maximum Humidity 86    
Minimum Humidity 49    
Precipitation  
Precipitation 0.00 in 0.17 in 2.25 in (2015)
Month to date precipitation T 0.52  
Year to date precipitation 14.59 14.35  
Snow  
Snow 0.00 in 0.00 in 0.00 in ()
Month to date snowfall 0.0 0.0  
Since 1 June snowfall 0.0 0.0  
Since 1 July snowfall 31.8 18.8  
Snow Depth 0.00 in    
Sea Level Pressure  
Sea Level Pressure 29.99 in    
Wind  
Wind Speed 9 mph (SE)    
Max Wind Speed 16 mph    
Max Gust Speed 22 mph    
Visibility 10 miles    
Events      
T = Trace of Precipitation, MM = Missing Value Source: NWS Daily Summary

Daily Weather History Graph

Daily Weather History Graph

Search for Another Location

Airport or City:

Trip Planner

Search our weather history database for the weather conditions in past years. The results will help you decide how hot, cold, wet, or windy it might be!

Date:

Astronomy

Jun. 03, 2013 Rise Set
Actual Time 5:53 AM CDT 8:41 PM CDT
Civil Twilight 5:21 AM CDT 9:13 PM CDT
Nautical Twilight 4:41 AM CDT 9:53 PM CDT
Astronomical Twilight 3:56 AM CDT 10:38 PM CDT
Moon 2:50 AM CDT (6/3) 4:13 PM CDT (6/3)
Length of Visible Light 15h 51m
Length of Day
14h 47m
Waning Crescent, 22% of the Moon is Illuminated
Jun 3
Waning Crescent
Jun 8
New
Jun 16
First Quarter
Jun 23
Full
Jun 29
Last Quarter

Hourly Weather History & Observations

Time (CDT) Temp. Dew Point Humidity Pressure Visibility Wind Dir Wind Speed Gust Speed Precip Events Conditions
12:53 AM 51.1 °F 45.0 °F 80% 30.05 in 10.0 mi SE 4.6 mph - N/A   Clear
1:53 AM 51.1 °F 45.0 °F 80% 30.05 in 10.0 mi SE 4.6 mph - N/A   Clear
2:53 AM 48.9 °F 45.0 °F 86% 30.05 in 10.0 mi SE 4.6 mph - N/A   Clear
3:53 AM 50.0 °F 44.1 °F 80% 30.04 in 10.0 mi SE 5.8 mph - N/A   Clear
4:53 AM 48.0 °F 43.0 °F 83% 30.06 in 9.0 mi SE 4.6 mph - N/A   Clear
5:53 AM 48.0 °F 43.0 °F 83% 30.07 in 10.0 mi SSE 3.5 mph - N/A   Clear
6:53 AM 52.0 °F 46.0 °F 80% 30.06 in 10.0 mi ESE 3.5 mph - N/A   Clear
7:53 AM 55.9 °F 46.9 °F 72% 30.06 in 10.0 mi SE 8.1 mph - N/A   Partly Cloudy
8:53 AM 59.0 °F 46.9 °F 64% 30.07 in 10.0 mi SE 10.4 mph - N/A   Partly Cloudy
9:53 AM 61.0 °F 46.9 °F 60% 30.05 in 10.0 mi ESE 8.1 mph - N/A   Partly Cloudy
10:53 AM 63.0 °F 48.0 °F 58% 30.04 in 10.0 mi SE 6.9 mph - N/A   Partly Cloudy
11:53 AM 66.0 °F 50.0 °F 56% 30.02 in 10.0 mi ESE 9.2 mph - N/A   Partly Cloudy
12:53 PM 68.0 °F 53.1 °F 59% 30.00 in 10.0 mi South 8.1 mph - N/A   Partly Cloudy
1:53 PM 70.0 °F 51.1 °F 51% 29.97 in 10.0 mi SSE 10.4 mph - N/A   Partly Cloudy
2:53 PM 71.1 °F 53.1 °F 53% 29.95 in 10.0 mi SSE 10.4 mph - N/A   Partly Cloudy
3:53 PM 73.0 °F 53.1 °F 49% 29.93 in 10.0 mi SSE 13.8 mph - N/A   Partly Cloudy
4:53 PM 73.0 °F 53.1 °F 49% 29.91 in 10.0 mi SSE 11.5 mph - N/A   Partly Cloudy
5:53 PM 73.0 °F 53.1 °F 49% 29.90 in 10.0 mi SE 10.4 mph - N/A   Partly Cloudy
6:53 PM 71.1 °F 52.0 °F 51% 29.89 in 10.0 mi SE 13.8 mph - N/A   Partly Cloudy
7:53 PM 69.1 °F 53.1 °F 57% 29.90 in 10.0 mi SSE 9.2 mph - N/A   Partly Cloudy
8:53 PM 66.0 °F 53.1 °F 63% 29.90 in 10.0 mi SE 10.4 mph - N/A   Clear
9:53 PM 64.0 °F 54.0 °F 70% 29.92 in 10.0 mi SE 6.9 mph - N/A   Partly Cloudy
10:53 PM 64.9 °F 54.0 °F 68% 29.93 in 10.0 mi ESE 13.8 mph - N/A   Clear
11:53 PM 64.0 °F 54.0 °F 70% 29.91 in 10.0 mi SE 13.8 mph - N/A   Clear